Location: Rumah Geringgi
(3.1667°N, 113.1667°E)
Time: 21:47:44
(UTC+00:00)

Cosmos 1536 Rocket - Pass Details

Date: 03 August 2024
Orbit: 602 x 627 km, 82.5° (Epoch: 19 September)

Event Time Altitude Azimuth Distance (km) Brightness Sun altitude
Rises 12:01:16 0° 194° (SSW) 2,852 6.9 -19.9°
Reaches altitude 10° 12:03:32 10° 200° (SSW) 1,945 6.1 -20.4°
Maximum altitude 12:07:40 46° 274° (W) 805 4.5 -21.4°
Drops below altitude 10° 12:11:47 10° 348° (NNW) 1,936 6.5 -22.3°
Sets 12:14:03 0° 354° (N) 2,837 7.3 -22.9°
